Location: Godiavel Galaoual
(15.2485°N, 12.6604°W)
Time: 00:04:15
(UTC+00:00)

Explorer 7 - Pass Details

Date: 15 June 2021
Orbit: 484 x 676 km, 50.3° (Epoch: 29 July)

Event Time Altitude Azimuth Distance (km) Brightness Sun altitude
Rises 20:06:46 0° 191° (S) 2,958 10.4 -10.5°
Reaches altitude 10° 20:09:31 10° 176° (S) 2,070 9.4 -11.1°
Maximum altitude 20:13:14 22° 125° (SE) 1,436 8.3 -11.9°
Drops below altitude 10° 20:17:00 10° 74° (ENE) 2,101 9.4 -12.7°
Sets 20:19:47 0° 60° (ENE) 3,014 10.3 -13.3°
